Time,TemperatureF,DewpointF,PressureIn,WindDirection,WindDirectionDegrees,WindSpeedMPH,WindSpeedGustMPH,Humidity,HourlyPrecipIn,Conditions,Clouds,dailyrainin,SoftwareType,DateUTC
2015-03-26 00:02:00,67.3,58.3,30.05,SSW,200,0.0,0.0,73,0.00,CLR,,0.00,WeatherDisplay:10.37,2015-03-26 05:02:00,
2015-03-26 00:08:00,67.3,58.3,30.05,SSW,200,0.0,0.0,73,0.00,CLR,,0.00,WeatherDisplay:10.37,2015-03-26 05:08:00,
2015-03-26 00:13:00,67.3,58.3,30.05,SSW,200,0.0,0.0,73,0.00,CLR,,0.00,WeatherDisplay:10.37,2015-03-26 05:13:00,
2015-03-26 00:18:00,67.3,58.3,30.05,SSW,200,0.0,0.0,73,0.00,CLR,,0.00,WeatherDisplay:10.37,2015-03-26 05:18:00,
2015-03-26 00:23:00,67.1,58.2,30.05,WNW,301,0.0,0.0,73,0.00,CLR,,0.00,WeatherDisplay:10.37,2015-03-26 05:23:00,
2015-03-26 00:28:00,67.1,58.2,30.05,WNW,301,0.0,0.0,73,0.00,CLR,,0.00,WeatherDisplay:10.37,2015-03-26 05:28:00,
2015-03-26 00:33:00,67.1,58.2,30.05,WNW,301,0.0,0.0,73,0.00,CLR,,0.00,WeatherDisplay:10.37,2015-03-26 05:33:00,
2015-03-26 00:38:00,66.9,58.0,30.05,WNW,301,0.0,0.0,73,0.00,CLR,,0.00,WeatherDisplay:10.37,2015-03-26 05:38:00,
2015-03-26 00:43:00,66.9,58.0,30.05,WNW,301,0.0,0.0,73,0.00,CLR,,0.00,WeatherDisplay:10.37,2015-03-26 05:43:00,
2015-03-26 00:47:00,66.8,58.2,30.05,WNW,301,0.0,0.0,74,0.00,CLR,,0.00,WeatherDisplay:10.37,2015-03-26 05:47:00,
2015-03-26 00:48:00,66.8,58.2,30.05,WNW,301,0.0,0.0,74,0.00,CLR,,0.00,WeatherDisplay:10.37,2015-03-26 05:48:00,
2015-03-26 00:53:00,66.8,58.2,30.05,WNW,301,0.0,0.0,74,0.00,CLR,,0.00,WeatherDisplay:10.37,2015-03-26 05:53:00,
2015-03-26 00:59:00,66.8,58.2,30.05,WNW,301,0.0,0.0,74,0.00,CLR,,0.00,WeatherDisplay:10.37,2015-03-26 05:59:00,
2015-03-26 01:04:00,66.8,58.2,30.05,WNW,301,0.0,0.0,74,0.00,CLR,,0.00,WeatherDisplay:10.37,2015-03-26 06:04:00,
2015-03-26 01:09:00,66.8,58.2,30.05,NNE,18,0.0,0.0,74,0.00,CLR,,0.00,WeatherDisplay:10.37,2015-03-26 06:09:00,
2015-03-26 01:14:00,66.8,58.2,30.05,NNE,18,0.0,0.0,74,0.00,CLR,,0.00,WeatherDisplay:10.37,2015-03-26 06:14:00,
2015-03-26 01:19:00,66.8,58.2,30.04,NNE,18,0.0,0.0,74,0.00,CLR,,0.00,WeatherDisplay:10.37,2015-03-26 06:19:00,
2015-03-26 01:24:00,66.6,58.4,30.04,NNE,18,0.0,0.0,75,0.00,CLR,,0.00,WeatherDisplay:10.37,2015-03-26 06:24:00,
2015-03-26 01:30:00,66.6,58.4,30.04,NNE,18,0.0,0.0,75,0.00,CLR,,0.00,WeatherDisplay:10.37,2015-03-26 06:30:00,
2015-03-26 01:35:00,66.6,58.4,30.04,NNE,18,0.0,0.0,75,0.00,CLR,,0.00,WeatherDisplay:10.37,2015-03-26 06:35:00,
2015-03-26 01:40:00,66.6,58.4,30.04,NNE,18,0.0,0.0,75,0.00,CLR,,0.00,WeatherDisplay:10.37,2015-03-26 06:40:00,
2015-03-26 01:45:00,66.4,58.2,30.04,NNE,18,0.0,0.0,75,0.00,CLR,,0.00,WeatherDisplay:10.37,2015-03-26 06:45:00,
2015-03-26 01:50:00,66.4,58.2,30.04,NNE,18,0.0,0.0,75,0.00,CLR,,0.00,WeatherDisplay:10.37,2015-03-26 06:50:00,
2015-03-26 01:55:00,66.4,58.2,30.04,NE,50,0.0,0.0,75,0.00,CLR,,0.00,WeatherDisplay:10.37,2015-03-26 06:55:00,
2015-03-26 02:00:00,66.9,58.7,30.04,SW,219,0.0,0.0,75,0.00,CLR,,0.00,WeatherDisplay:10.37,2015-03-26 07:00:00,
2015-03-26 02:05:00,66.8,58.6,30.04,SW,219,0.0,0.0,75,0.00,CLR,,0.00,WeatherDisplay:10.37,2015-03-26 07:05:00,
2015-03-26 02:10:00,66.6,58.4,30.04,SW,222,0.0,0.0,75,0.00,CLR,,0.00,WeatherDisplay:10.37,2015-03-26 07:10:00,
2015-03-26 02:15:00,66.4,58.6,30.02,SW,222,0.0,0.0,76,0.00,CLR,,0.00,WeatherDisplay:10.37,2015-03-26 07:15:00,
2015-03-26 02:20:00,66.4,58.6,30.02,South,178,0.0,0.0,76,0.00,CLR,,0.00,WeatherDisplay:10.37,2015-03-26 07:20:00,
2015-03-26 02:26:00,66.4,58.6,30.02,SSW,209,0.0,0.0,76,0.00,CLR,,0.00,WeatherDisplay:10.37,2015-03-26 07:26:00,
2015-03-26 02:31:00,66.4,58.6,30.02,SSW,209,0.0,0.0,76,0.00,CLR,,0.00,WeatherDisplay:10.37,2015-03-26 07:31:00,
2015-03-26 02:34:00,65.6,58.2,30.01,SSW,209,0.0,0.0,77,0.00,CLR,,0.00,WeatherDisplay:10.37,2015-03-26 07:34:00,
2015-03-26 02:36:00,66.0,58.2,30.02,SSW,209,0.0,0.0,76,0.00,CLR,,0.00,WeatherDisplay:10.37,2015-03-26 07:36:00,
2015-03-26 02:41:00,65.6,58.2,30.01,SSW,209,0.0,0.0,77,0.00,CLR,,0.00,WeatherDisplay:10.37,2015-03-26 07:41:00,
2015-03-26 02:46:00,65.5,58.5,30.01,SSW,209,0.0,0.0,78,0.00,CLR,,0.00,WeatherDisplay:10.37,2015-03-26 07:46:00,
2015-03-26 02:51:00,65.5,58.5,30.01,SSW,209,0.0,0.0,78,0.00,CLR,,0.00,WeatherDisplay:10.37,2015-03-26 07:51:00,
2015-03-26 02:56:00,65.2,58.5,30.01,SSW,209,1.0,0.0,79,0.00,CLR,,0.00,WeatherDisplay:10.37,2015-03-26 07:56:00,
2015-03-26 03:01:00,65.2,58.5,30.01,SSW,209,1.2,0.0,79,0.00,CLR,,0.00,WeatherDisplay:10.37,2015-03-26 08:01:00,
2015-03-26 03:07:00,65.0,58.3,30.01,SSW,209,1.2,1.2,79,0.00,CLR,,0.00,WeatherDisplay:10.37,2015-03-26 08:07:00,
2015-03-26 03:12:00,65.0,58.3,30.01,SSW,209,1.2,1.2,79,0.00,CLR,,0.00,WeatherDisplay:10.37,2015-03-26 08:12:00,
2015-03-26 03:17:00,64.7,58.4,30.00,SSW,209,1.2,1.2,80,0.00,CLR,,0.00,WeatherDisplay:10.37,2015-03-26 08:17:00,
2015-03-26 03:22:00,64.7,58.4,30.00,SSW,209,1.2,1.2,80,0.00,CLR,,0.00,WeatherDisplay:10.37,2015-03-26 08:22:00,
2015-03-26 03:27:00,64.5,58.2,30.00,SSW,209,1.2,1.2,80,0.00,CLR,,0.00,WeatherDisplay:10.37,2015-03-26 08:27:00,
2015-03-26 03:32:00,64.2,58.2,30.00,SSW,209,1.2,1.2,81,0.00,CLR,,0.00,WeatherDisplay:10.37,2015-03-26 08:32:00,
2015-03-26 03:38:00,64.2,58.2,30.00,SSW,209,1.2,1.2,81,0.00,CLR,,0.00,WeatherDisplay:10.37,2015-03-26 08:38:00,
2015-03-26 03:43:00,64.2,58.2,30.00,SSW,209,0.0,0.1,81,0.00,CLR,,0.00,WeatherDisplay:10.37,2015-03-26 08:43:00,
2015-03-26 03:48:00,64.2,58.6,30.00,SSW,209,0.0,0.0,82,0.00,CLR,,0.00,WeatherDisplay:10.37,2015-03-26 08:48:00,
2015-03-26 03:50:00,64.2,58.6,30.00,SSW,209,0.0,0.0,82,0.00,CLR,,0.00,WeatherDisplay:10.37,2015-03-26 08:50:00,
2015-03-26 03:53:00,64.2,58.6,30.00,SSW,209,0.0,0.0,82,0.00,CLR,,0.00,WeatherDisplay:10.37,2015-03-26 08:53:00,
2015-03-26 03:58:00,64.2,58.6,30.00,SSW,209,0.0,0.0,82,0.00,CLR,,0.00,WeatherDisplay:10.37,2015-03-26 08:58:00,
2015-03-26 04:03:00,64.2,58.6,30.00,SSW,209,0.0,0.0,82,0.00,CLR,,0.00,WeatherDisplay:10.37,2015-03-26 09:03:00,
2015-03-26 04:08:00,64.2,58.2,30.00,SSW,209,0.0,0.0,81,0.00,CLR,,0.00,WeatherDisplay:10.37,2015-03-26 09:08:00,
2015-03-26 04:13:00,64.3,58.3,30.00,SSW,209,0.0,0.0,81,0.00,CLR,,0.00,WeatherDisplay:10.37,2015-03-26 09:13:00,
2015-03-26 04:18:00,64.5,58.5,29.99,SSW,208,0.0,0.0,81,0.00,CLR,,0.00,WeatherDisplay:10.37,2015-03-26 09:18:00,
2015-03-26 04:23:00,64.7,58.7,29.99,WSW,250,1.0,0.0,81,0.00,CLR,,0.00,WeatherDisplay:10.37,2015-03-26 09:23:00,
2015-03-26 04:28:00,64.7,58.7,29.99,WSW,250,1.2,0.0,81,0.00,CLR,,0.00,WeatherDisplay:10.37,2015-03-26 09:28:00,
2015-03-26 04:34:00,64.7,58.7,29.99,WSW,250,1.2,0.0,81,0.00,CLR,,0.00,WeatherDisplay:10.37,2015-03-26 09:34:00,
2015-03-26 04:39:00,65.0,58.7,29.99,WSW,250,1.2,1.2,80,0.00,CLR,,0.00,WeatherDisplay:10.37,2015-03-26 09:39:00,
2015-03-26 04:44:00,65.2,58.9,29.99,SSW,213,1.2,1.2,80,0.00,CLR,,0.00,WeatherDisplay:10.37,2015-03-26 09:44:00,
2015-03-26 04:49:00,65.2,58.9,29.99,SSW,213,1.2,1.2,80,0.00,CLR,,0.00,WeatherDisplay:10.37,2015-03-26 09:49:00,
2015-03-26 04:54:00,65.2,58.9,29.99,WSW,257,1.2,1.2,80,0.00,CLR,,0.00,WeatherDisplay:10.37,2015-03-26 09:54:00,
2015-03-26 04:59:00,65.2,58.9,29.99,WSW,257,1.2,1.2,80,0.00,CLR,,0.00,WeatherDisplay:10.37,2015-03-26 09:59:00,
2015-03-26 05:04:00,65.2,58.9,29.98,WSW,257,1.2,1.2,80,0.00,CLR,,0.00,WeatherDisplay:10.37,2015-03-26 10:04:00,
2015-03-26 05:09:00,64.8,58.5,29.98,WSW,257,1.2,1.2,80,0.00,CLR,,0.00,WeatherDisplay:10.37,2015-03-26 10:09:00,
2015-03-26 05:14:00,64.7,58.7,29.98,WSW,257,1.2,0.0,81,0.00,CLR,,0.00,WeatherDisplay:10.37,2015-03-26 10:14:00,
2015-03-26 05:19:00,64.5,58.2,29.98,WSW,245,0.0,0.0,80,0.00,CLR,,0.00,WeatherDisplay:10.37,2015-03-26 10:19:00,
2015-03-26 05:24:00,64.5,58.2,29.98,WSW,245,1.2,0.0,80,0.00,CLR,,0.00,WeatherDisplay:10.37,2015-03-26 10:24:00,
2015-03-26 05:30:00,64.5,58.5,29.99,WSW,245,1.2,1.2,81,0.00,CLR,,0.00,WeatherDisplay:10.37,2015-03-26 10:30:00,
2015-03-26 05:35:00,64.5,58.5,29.99,WSW,245,1.2,1.2,81,0.00,CLR,,0.00,WeatherDisplay:10.37,2015-03-26 10:35:00,
2015-03-26 05:40:00,64.5,58.5,29.99,WSW,245,1.2,1.2,81,0.00,CLR,,0.00,WeatherDisplay:10.37,2015-03-26 10:40:00,
2015-03-26 05:45:00,64.5,58.5,29.99,WSW,245,1.2,1.2,81,0.00,CLR,,0.00,WeatherDisplay:10.37,2015-03-26 10:45:00,
2015-03-26 05:49:00,64.5,58.5,30.00,WSW,245,1.2,1.2,81,0.00,CLR,,0.00,WeatherDisplay:10.37,2015-03-26 10:49:00,
2015-03-26 05:50:00,64.5,58.5,29.99,WSW,245,1.2,1.2,81,0.00,CLR,,0.00,WeatherDisplay:10.37,2015-03-26 10:50:00,
2015-03-26 05:56:00,64.5,58.5,30.00,WSW,245,1.2,1.2,81,0.00,CLR,,0.00,WeatherDisplay:10.37,2015-03-26 10:56:00,
2015-03-26 06:01:00,64.5,58.5,30.00,WSW,245,1.2,1.2,81,0.00,CLR,,0.00,WeatherDisplay:10.37,2015-03-26 11:01:00,
2015-03-26 06:06:00,64.5,58.5,30.00,WSW,245,0.0,0.0,81,0.00,CLR,,0.00,WeatherDisplay:10.37,2015-03-26 11:06:00,
2015-03-26 06:11:00,64.5,58.5,30.00,WSW,245,0.0,0.0,81,0.00,CLR,,0.00,WeatherDisplay:10.37,2015-03-26 11:11:00,
2015-03-26 06:16:00,64.7,58.7,30.00,South,189,0.0,0.0,81,0.00,CLR,,0.00,WeatherDisplay:10.37,2015-03-26 11:16:00,
2015-03-26 06:21:00,64.7,58.7,30.00,SSW,201,0.0,0.0,81,0.00,CLR,,0.00,WeatherDisplay:10.37,2015-03-26 11:21:00,
2015-03-26 06:26:00,64.7,58.7,30.00,SSW,205,0.0,0.0,81,0.00,CLR,,0.00,WeatherDisplay:10.37,2015-03-26 11:26:00,
2015-03-26 06:31:00,64.7,58.7,29.99,SSW,197,0.0,0.0,81,0.00,CLR,,0.00,WeatherDisplay:10.37,2015-03-26 11:31:00,
2015-03-26 06:36:00,64.5,58.5,29.99,SW,217,1.2,0.0,81,0.00,CLR,,0.00,WeatherDisplay:10.37,2015-03-26 11:36:00,
2015-03-26 06:41:00,64.5,58.5,29.99,SSW,207,1.2,0.0,81,0.00,CLR,,0.00,WeatherDisplay:10.37,2015-03-26 11:41:00,
2015-03-26 06:46:00,64.3,58.3,30.00,SSW,208,1.2,0.0,81,0.00,CLR,,0.00,WeatherDisplay:10.37,2015-03-26 11:46:00,
2015-03-26 06:52:00,64.3,58.3,30.00,SSW,205,1.2,0.0,81,0.00,CLR,,0.00,WeatherDisplay:10.37,2015-03-26 11:52:00,
2015-03-26 06:57:00,64.3,58.3,30.00,SSW,205,1.2,0.0,81,0.00,CLR,,0.00,WeatherDisplay:10.37,2015-03-26 11:57:00,
2015-03-26 07:02:00,64.2,58.2,29.99,SSW,204,1.2,0.0,81,0.00,CLR,,0.00,WeatherDisplay:10.37,2015-03-26 12:02:00,
2015-03-26 07:07:00,64.2,58.6,29.99,SSW,204,1.2,0.0,82,0.00,CLR,,0.00,WeatherDisplay:10.37,2015-03-26 12:07:00,
2015-03-26 07:12:00,64.2,58.6,29.99,SSW,204,0.0,0.0,82,0.00,CLR,,0.00,WeatherDisplay:10.37,2015-03-26 12:12:00,
2015-03-26 07:17:00,64.2,58.6,29.99,SSW,204,0.0,0.0,82,0.00,CLR,,0.00,WeatherDisplay:10.37,2015-03-26 12:17:00,
2015-03-26 07:22:00,64.2,58.6,30.00,SSW,204,0.0,0.0,82,0.00,CLR,,0.00,WeatherDisplay:10.37,2015-03-26 12:22:00,
2015-03-26 07:27:00,64.2,58.6,30.01,SSW,200,0.0,0.0,82,0.00,CLR,,0.00,WeatherDisplay:10.37,2015-03-26 12:27:00,
2015-03-26 07:33:00,64.2,58.6,30.01,SSW,200,0.0,0.0,82,0.00,CLR,,0.00,WeatherDisplay:10.37,2015-03-26 12:33:00,
2015-03-26 07:38:00,64.2,58.6,30.01,SSW,196,0.0,0.0,82,0.00,CLR,,0.00,WeatherDisplay:10.37,2015-03-26 12:38:00,
2015-03-26 07:43:00,64.2,58.6,30.01,SSW,196,0.0,0.0,82,0.00,CLR,,0.00,WeatherDisplay:10.37,2015-03-26 12:43:00,
2015-03-26 07:48:00,64.2,58.6,30.01,SSW,196,0.0,0.0,82,0.00,CLR,,0.00,WeatherDisplay:10.37,2015-03-26 12:48:00,
2015-03-26 07:53:00,64.3,58.3,30.01,SSW,194,0.0,0.0,81,0.00,CLR,,0.00,WeatherDisplay:10.37,2015-03-26 12:53:00,
2015-03-26 07:55:00,64.3,58.3,30.01,SSW,194,0.0,0.0,81,0.00,CLR,,0.00,WeatherDisplay:10.37,2015-03-26 12:55:00,
2015-03-26 07:58:00,64.3,58.3,30.01,SSW,194,0.0,0.0,81,0.00,CLR,,0.00,WeatherDisplay:10.37,2015-03-26 12:58:00,
2015-03-26 08:04:00,64.3,58.3,30.01,SSW,194,0.0,0.0,81,0.00,CLR,,0.00,WeatherDisplay:10.37,2015-03-26 13:04:00,
2015-03-26 08:09:00,64.3,58.3,30.01,SSW,194,0.0,0.0,81,0.00,CLR,,0.00,WeatherDisplay:10.37,2015-03-26 13:09:00,
2015-03-26 08:14:00,64.8,58.5,30.00,SW,221,0.0,0.0,80,0.00,CLR,,0.00,WeatherDisplay:10.37,2015-03-26 13:14:00,
2015-03-26 08:19:00,64.8,58.5,30.00,SW,221,0.0,0.0,80,0.00,CLR,,0.00,WeatherDisplay:10.37,2015-03-26 13:19:00,
2015-03-26 08:24:00,65.2,58.9,30.00,West,263,0.0,0.0,80,0.00,CLR,,0.00,WeatherDisplay:10.37,2015-03-26 13:24:00,
2015-03-26 08:29:00,65.2,58.9,30.00,West,263,0.0,0.0,80,0.00,CLR,,0.00,WeatherDisplay:10.37,2015-03-26 13:29:00,
2015-03-26 08:34:00,65.2,58.9,30.00,West,263,0.0,0.0,80,0.00,CLR,,0.00,WeatherDisplay:10.37,2015-03-26 13:34:00,
2015-03-26 08:41:00,65.2,58.9,30.00,West,263,0.0,0.0,80,0.00,CLR,,0.00,WeatherDisplay:10.37,2015-03-26 13:41:00,
2015-03-26 08:46:00,65.2,58.9,30.00,West,263,0.0,0.0,80,0.00,CLR,,0.00,WeatherDisplay:10.37,2015-03-26 13:46:00,
2015-03-26 08:51:00,65.2,58.9,30.00,West,263,0.0,0.0,80,0.00,CLR,,0.00,WeatherDisplay:10.37,2015-03-26 13:51:00,
2015-03-26 08:56:00,65.2,58.9,30.00,West,263,0.0,0.0,80,0.00,CLR,,0.00,WeatherDisplay:10.37,2015-03-26 13:56:00,
2015-03-26 09:01:00,66.4,58.6,29.99,WNW,294,0.0,0.0,76,0.00,CLR,,0.00,WeatherDisplay:10.37,2015-03-26 14:01:00,
2015-03-26 09:07:00,66.4,58.6,29.99,WNW,294,0.0,0.0,76,0.00,CLR,,0.00,WeatherDisplay:10.37,2015-03-26 14:07:00,
2015-03-26 09:12:00,66.6,58.8,29.99,SSW,203,0.0,0.0,76,0.00,CLR,,0.00,WeatherDisplay:10.37,2015-03-26 14:12:00,
2015-03-26 09:17:00,66.8,58.6,29.99,SW,224,0.0,0.0,75,0.00,CLR,,0.00,WeatherDisplay:10.37,2015-03-26 14:17:00,
2015-03-26 09:22:00,67.3,58.7,29.99,South,176,2.0,0.0,74,0.00,CLR,,0.00,WeatherDisplay:10.37,2015-03-26 14:22:00,
2015-03-26 09:27:00,67.3,58.7,29.99,SSW,192,2.3,2.3,74,0.00,CLR,,0.00,WeatherDisplay:10.37,2015-03-26 14:27:00,
2015-03-26 09:33:00,67.8,58.8,29.98,WSW,252,2.3,2.3,73,0.00,CLR,,0.00,WeatherDisplay:10.37,2015-03-26 14:33:00,
2015-03-26 09:37:00,68.3,58.9,29.98,SSE,157,2.3,2.3,72,0.00,CLR,,0.00,WeatherDisplay:10.37,2015-03-26 14:37:00,
2015-03-26 09:43:00,68.4,59.4,29.97,SW,232,2.3,2.3,73,0.00,CLR,,0.00,WeatherDisplay:10.37,2015-03-26 14:43:00,
2015-03-26 09:48:00,68.6,58.8,29.97,SSW,207,2.3,2.3,71,0.00,CLR,,0.00,WeatherDisplay:10.37,2015-03-26 14:48:00,
2015-03-26 09:53:00,68.8,59.0,29.97,West,265,2.3,2.3,71,0.00,CLR,,0.00,WeatherDisplay:10.37,2015-03-26 14:53:00,
2015-03-26 09:58:00,68.6,58.8,29.98,SSE,162,2.3,2.3,71,0.00,CLR,,0.00,WeatherDisplay:10.37,2015-03-26 14:58:00,
2015-03-26 10:03:00,68.6,59.2,29.98,SSW,200,2.3,2.3,72,0.00,CLR,,0.00,WeatherDisplay:10.37,2015-03-26 15:03:00,
2015-03-26 10:08:00,68.6,59.2,29.98,SSW,200,2.3,2.3,72,0.00,CLR,,0.00,WeatherDisplay:10.37,2015-03-26 15:08:00,
2015-03-26 10:13:00,68.8,59.0,29.96,WSW,248,2.3,2.3,71,0.00,CLR,,0.00,WeatherDisplay:10.37,2015-03-26 15:13:00,
2015-03-26 10:18:00,69.3,59.5,29.96,SSE,153,2.3,2.3,71,0.00,CLR,,0.00,WeatherDisplay:10.37,2015-03-26 15:18:00,
2015-03-26 10:23:00,70.4,59.3,29.96,SSE,153,2.0,0.0,68,0.00,CLR,,0.00,WeatherDisplay:10.37,2015-03-26 15:23:00,
2015-03-26 10:28:00,70.9,59.4,29.95,South,181,1.2,1.2,67,0.00,CLR,,0.00,WeatherDisplay:10.37,2015-03-26 15:28:00,
2015-03-26 10:33:00,71.5,59.5,29.95,WNW,292,2.3,2.3,66,0.00,CLR,,0.00,WeatherDisplay:10.37,2015-03-26 15:33:00,
2015-03-26 10:38:00,71.5,59.5,29.95,WNW,292,2.3,2.3,66,0.00,CLR,,0.00,WeatherDisplay:10.37,2015-03-26 15:38:00,
2015-03-26 10:43:00,72.5,59.6,29.95,West,260,2.3,2.3,64,0.00,CLR,,0.00,WeatherDisplay:10.37,2015-03-26 15:43:00,
2015-03-26 10:48:00,72.5,59.2,29.95,SW,232,3.5,3.5,63,0.00,CLR,,0.00,WeatherDisplay:10.37,2015-03-26 15:48:00,
2015-03-26 10:54:00,72.7,59.8,29.95,South,178,3.5,3.5,64,0.00,CLR,,0.00,WeatherDisplay:10.37,2015-03-26 15:54:00,
2015-03-26 10:59:00,73.3,59.0,29.94,South,183,3.5,3.5,61,0.00,CLR,,0.00,WeatherDisplay:10.37,2015-03-26 15:59:00,
2015-03-26 11:04:00,73.3,59.0,29.94,South,183,3.5,3.5,61,0.00,CLR,,0.00,WeatherDisplay:10.37,2015-03-26 16:04:00,
2015-03-26 11:09:00,73.3,59.0,29.94,South,183,3.5,3.5,61,0.00,CLR,,0.00,WeatherDisplay:10.37,2015-03-26 16:09:00,
2015-03-26 11:14:00,73.5,58.8,29.93,SW,219,5.8,5.8,60,0.00,CLR,,0.00,WeatherDisplay:10.37,2015-03-26 16:14:00,
2015-03-26 11:19:00,73.5,58.8,29.93,SW,219,5.8,5.8,60,0.00,CLR,,0.00,WeatherDisplay:10.37,2015-03-26 16:19:00,
2015-03-26 11:25:00,73.5,58.8,29.93,SW,223,5.8,5.8,60,0.00,CLR,,0.00,WeatherDisplay:10.37,2015-03-26 16:25:00,
2015-03-26 11:30:00,73.5,59.2,29.92,WSW,252,5.8,5.8,61,0.00,CLR,,0.00,WeatherDisplay:10.37,2015-03-26 16:30:00,
2015-03-26 11:35:00,73.3,59.0,29.92,SW,233,5.8,5.8,61,0.00,CLR,,0.00,WeatherDisplay:10.37,2015-03-26 16:35:00,
2015-03-26 11:40:00,73.2,58.5,29.92,SW,217,5.8,5.8,60,0.00,CLR,,0.00,WeatherDisplay:10.37,2015-03-26 16:40:00,
2015-03-26 11:45:00,73.0,57.8,29.92,SSW,211,1.2,1.2,59,0.00,CLR,,0.00,WeatherDisplay:10.37,2015-03-26 16:45:00,
2015-03-26 11:50:00,72.7,58.5,29.92,South,181,1.2,1.2,61,0.00,CLR,,0.00,WeatherDisplay:10.37,2015-03-26 16:50:00,
2015-03-26 11:56:00,72.5,58.3,29.92,SSW,209,2.3,2.3,61,0.00,CLR,,0.00,WeatherDisplay:10.37,2015-03-26 16:56:00,
2015-03-26 12:01:00,72.5,57.8,29.90,SW,236,2.3,2.3,60,0.00,CLR,,0.00,WeatherDisplay:10.37,2015-03-26 17:01:00,
2015-03-26 12:06:00,72.5,57.8,29.90,SW,236,2.3,2.3,60,0.00,CLR,,0.00,WeatherDisplay:10.37,2015-03-26 17:06:00,
2015-03-26 12:11:00,72.5,58.3,29.90,WSW,251,3.5,3.5,61,0.00,CLR,,0.00,WeatherDisplay:10.37,2015-03-26 17:11:00,
2015-03-26 12:16:00,73.2,58.9,29.90,SSW,205,3.5,3.5,61,0.00,CLR,,0.00,WeatherDisplay:10.37,2015-03-26 17:16:00,
2015-03-26 12:21:00,73.2,58.9,29.90,SSW,205,3.5,3.5,61,0.00,CLR,,0.00,WeatherDisplay:10.37,2015-03-26 17:21:00,
2015-03-26 12:26:00,73.5,58.8,29.90,SSW,197,3.5,3.5,60,0.00,CLR,,0.00,WeatherDisplay:10.37,2015-03-26 17:26:00,
2015-03-26 12:31:00,74.6,57.4,29.89,WSW,238,3.5,3.5,55,0.00,CLR,,0.00,WeatherDisplay:10.37,2015-03-26 17:31:00,
2015-03-26 12:36:00,73.9,57.7,29.89,South,185,3.5,3.5,57,0.00,CLR,,0.00,WeatherDisplay:10.37,2015-03-26 17:36:00,
2015-03-26 12:41:00,74.0,57.3,29.89,SE,137,3.5,3.5,56,0.00,CLR,,0.00,WeatherDisplay:10.37,2015-03-26 17:41:00,
2015-03-26 12:46:00,74.4,57.7,29.89,SSW,209,3.5,3.5,56,0.00,CLR,,0.00,WeatherDisplay:10.37,2015-03-26 17:46:00,
2015-03-26 12:51:00,74.7,58.5,29.89,SE,145,3.5,3.5,57,0.00,CLR,,0.00,WeatherDisplay:10.37,2015-03-26 17:51:00,
2015-03-26 12:56:00,75.1,57.3,29.87,WSW,257,4.6,4.6,54,0.00,CLR,,0.00,WeatherDisplay:10.37,2015-03-26 17:56:00,
2015-03-26 13:01:00,75.3,57.5,29.87,NNW,336,4.6,4.6,54,0.00,CLR,,0.00,WeatherDisplay:10.37,2015-03-26 18:01:00,
2015-03-26 13:06:00,75.3,57.0,29.87,SSW,212,4.6,4.6,53,0.00,CLR,,0.00,WeatherDisplay:10.37,2015-03-26 18:06:00,
2015-03-26 13:13:00,75.8,56.4,29.87,SSW,207,4.6,4.6,51,0.00,CLR,,0.00,WeatherDisplay:10.37,2015-03-26 18:13:00,
2015-03-26 13:18:00,75.8,56.4,29.87,SSW,207,4.6,4.6,51,0.00,CLR,,0.00,WeatherDisplay:10.37,2015-03-26 18:18:00,
2015-03-26 13:23:00,75.3,56.5,29.87,WSW,254,4.6,4.6,52,0.00,CLR,,0.00,WeatherDisplay:10.37,2015-03-26 18:23:00,
2015-03-26 13:28:00,75.4,56.0,29.87,SSW,206,3.5,3.5,51,0.00,CLR,,0.00,WeatherDisplay:10.37,2015-03-26 18:28:00,
2015-03-26 13:33:00,75.6,57.3,29.86,SW,234,3.5,3.5,53,0.00,CLR,,0.00,WeatherDisplay:10.37,2015-03-26 18:33:00,
2015-03-26 13:38:00,75.8,55.8,29.86,WSW,249,3.5,3.5,50,0.00,CLR,,0.00,WeatherDisplay:10.37,2015-03-26 18:38:00,
2015-03-26 13:43:00,76.0,54.9,29.84,SW,218,3.5,3.5,48,0.00,CLR,,0.00,WeatherDisplay:10.37,2015-03-26 18:43:00,
2015-03-26 13:48:00,76.1,54.4,29.84,SSW,209,3.5,3.5,47,0.00,CLR,,0.00,WeatherDisplay:10.37,2015-03-26 18:48:00,
2015-03-26 13:53:00,76.1,55.0,29.84,West,260,3.5,3.5,48,0.00,CLR,,0.00,WeatherDisplay:10.37,2015-03-26 18:53:00,
2015-03-26 13:59:00,76.3,54.6,29.83,South,188,4.0,4.0,47,0.00,CLR,,0.00,WeatherDisplay:10.37,2015-03-26 18:59:00,
2015-03-26 14:04:00,76.3,55.2,29.83,WSW,240,3.5,3.5,48,0.00,CLR,,0.00,WeatherDisplay:10.37,2015-03-26 19:04:00,
2015-03-26 14:09:00,76.3,55.2,29.83,WSW,240,3.5,3.5,48,0.00,CLR,,0.00,WeatherDisplay:10.37,2015-03-26 19:09:00,
2015-03-26 14:14:00,76.3,55.2,29.83,WSW,240,3.5,3.5,48,0.00,CLR,,0.00,WeatherDisplay:10.37,2015-03-26 19:14:00,